Rough And Ready, California
Current Conditions -  °F | °C
As of 12:00 AM on Sunday 26 Oct 2014 (Local Time) from KGOO Reporting Station
Overcast Overcast  
Wind Chill: 50°   Ceiling: 100
Heat Index: 50°   Visibility: 0.25mi
Dew Point: 50°   Wind: 5mph
Humidity: 100%   Direction: 170°S
Pressure: 30.16"   Gusts: NA
Location:  39.23°N, 121.13°W
Report Text: KGOO 260700Z AUTO 17004KT 1/4SM OVC001 10/10 A3016 RMK AO1
Loading
Personal Weather Stations






























Interactive Weather Map
Tropical Storm Tracking
New forecast layout! Learn more

10-Day Weather Forecast

Advertisements
Track Severe Weather on mobile